• In Hungary
  • List of Countries
  • For 7 days
  • Water Temperature
  • Satellite Maps
  • Weather Map
  • News
  • Weather Widgets
  • user-avatar
    Login

    Hourly Weather Sulislaw

    Today, 23 October, Tuesday

    Time Temperature Precipitation Wind Pressure Humidity
    00:00 +5°C° 0 mm 3 mps 751 mmHg 88%
    01:00 +5°C° 0 mm 2 mps 751 mmHg 91%
    02:00 +5°C° 0 mm 2 mps 750 mmHg 91%
    03:00 +4°C° 0 mm 2 mps 750 mmHg 90%
    04:00 +3°C° 0 mm 3 mps 749 mmHg 89%
    05:00 +3°C° 0 mm 3 mps 748 mmHg 87%
    06:00 +4°C° 0 mm 4 mps 748 mmHg 85%
    07:00 +3°C° 0 mm 5 mps 747 mmHg 82%
    08:00 +4°C° 0 mm 6 mps 746 mmHg 75%
    09:00 +6°C° 0 mm 7 mps 745 mmHg 69%
    10:00 +8°C° 0 mm 7 mps 744 mmHg 62%
    11:00 +7°C° 0.2 mm 8 mps 743 mmHg 62%
    12:00 +9°C° 0.2 mm 8 mps 742 mmHg 61%
    13:00 +8°C° 0.2 mm 9 mps 741 mmHg 61%
    14:00 +8°C° 1.1 mm 9 mps 740 mmHg 65%
    15:00 +7°C° 1.1 mm 9 mps 739 mmHg 70%
    16:00 +7°C° 1.1 mm 10 mps 738 mmHg 74%
    17:00 +8°C° 0.5 mm 10 mps 737 mmHg 75%
    18:00 +8°C° 0.5 mm 10 mps 737 mmHg 76%
    19:00 +8°C° 0.5 mm 10 mps 736 mmHg 77%
    20:00 +9°C° 0.7 mm 10 mps 735 mmHg 78%
    21:00 +9°C° 0.7 mm 10 mps 735 mmHg 79%
    22:00 +9°C° 0.7 mm 10 mps 735 mmHg 80%
    23:00 +9°C° 1.1 mm 10 mps 734 mmHg 80%

    Tomorrow, 24 October, Wednesday

    Time Temperature Precipitation Wind Pressure Humidity
    00:00 +9°C° 1.1 mm 10 mps 734 mmHg 80%
    01:00 +10°C° 1.1 mm 9 mps 733 mmHg 80%
    02:00 +8°C° 0.6 mm 10 mps 733 mmHg 78%
    03:00 +7°C° 0.6 mm 10 mps 733 mmHg 76%
    04:00 +7°C° 0.6 mm 10 mps 733 mmHg 74%
    05:00 +6°C° 0.2 mm 10 mps 734 mmHg 73%
    06:00 +6°C° 0.2 mm 9 mps 734 mmHg 71%
    07:00 +5°C° 0.2 mm 9 mps 735 mmHg 69%
    08:00 +5°C° 0.1 mm 9 mps 736 mmHg 65%
    09:00 +5°C° 0.1 mm 10 mps 736 mmHg 61%
    10:00 +6°C° 0.1 mm 11 mps 737 mmHg 58%
    11:00 +6°C° 0.1 mm 10 mps 737 mmHg 56%
    12:00 +6°C° 0.1 mm 10 mps 738 mmHg 54%
    13:00 +6°C° 0.1 mm 10 mps 738 mmHg 53%
    14:00 +6°C° 0 mm 9 mps 739 mmHg 53%
    15:00 +6°C° 0 mm 8 mps 739 mmHg 53%
    16:00 +6°C° 0 mm 8 mps 740 mmHg 53%
    17:00 +5°C° 0 mm 7 mps 741 mmHg 55%
    18:00 +4°C° 0 mm 6 mps 741 mmHg 57%
    19:00 +4°C° 0 mm 6 mps 742 mmHg 60%
    20:00 +3°C° 0 mm 6 mps 742 mmHg 63%
    21:00 +3°C° 0 mm 5 mps 743 mmHg 65%
    22:00 +3°C° 0 mm 5 mps 743 mmHg 68%
    23:00 +2°C° 0 mm 5 mps 743 mmHg 71%

    Day after tomorrow, 25 October, Thursday

    Time Temperature Precipitation Wind Pressure Humidity
    00:00 +3°C° 0 mm 4 mps 743 mmHg 73%
    01:00 +3°C° 0 mm 4 mps 743 mmHg 75%
    02:00 +3°C° 0 mm 4 mps 743 mmHg 76%
    03:00 +4°C° 0 mm 4 mps 742 mmHg 77%
    04:00 +4°C° 0 mm 4 mps 741 mmHg 77%
    05:00 +5°C° 0.4 mm 4 mps 741 mmHg 80%
    06:00 +6°C° 0.4 mm 5 mps 740 mmHg 83%
    07:00 +7°C° 0.4 mm 5 mps 739 mmHg 86%
    08:00 +8°C° 0.2 mm 6 mps 739 mmHg 83%
    09:00 +9°C° 0.2 mm 8 mps 739 mmHg 80%
    10:00 +11°C° 0.2 mm 9 mps 738 mmHg 78%
    11:00 +11°C° 0.1 mm 9 mps 738 mmHg 77%
    12:00 +11°C° 0.1 mm 9 mps 738 mmHg 76%
    13:00 +11°C° 0.1 mm 9 mps 738 mmHg 75%
    14:00 +11°C° 0.1 mm 8 mps 738 mmHg 76%
    15:00 +10°C° 0.1 mm 8 mps 738 mmHg 77%
    16:00 +10°C° 0.1 mm 7 mps 738 mmHg 78%
    17:00 +10°C° 0.1 mm 7 mps 738 mmHg 79%
    18:00 +10°C° 0.1 mm 7 mps 738 mmHg 80%
    19:00 +10°C° 0.1 mm 7 mps 739 mmHg 82%
    20:00 +10°C° 0.3 mm 6 mps 739 mmHg 82%
    21:00 +10°C° 0.3 mm 6 mps 739 mmHg 83%
    22:00 +9°C° 0.3 mm 6 mps 739 mmHg 84%
    23:00 +9°C° 0.2 mm 5 mps 739 mmHg 84%

    26 October, Friday

    Time Temperature Precipitation Wind Pressure Humidity
    00:00 +9°C° 0.2 mm 5 mps 739 mmHg 85%
    01:00 +10°C° 0.2 mm 4 mps 740 mmHg 85%
    02:00 +8°C° 0.1 mm 4 mps 739 mmHg 86%
    03:00 +9°C° 0.1 mm 3 mps 739 mmHg 87%
    04:00 +8°C° 0.1 mm 3 mps 739 mmHg 88%
    05:00 +8°C° 0 mm 3 mps 739 mmHg 88%
    06:00 +8°C° 0 mm 2 mps 739 mmHg 89%
    07:00 +8°C° 0 mm 2 mps 739 mmHg 90%
    08:00 +9°C° 0 mm 3 mps 739 mmHg 85%
    09:00 +10°C° 0 mm 4 mps 738 mmHg 81%
    10:00 +11°C° 0 mm 4 mps 738 mmHg 77%
    11:00 +12°C° 0 mm 5 mps 737 mmHg 73%
    12:00 +13°C° 0 mm 5 mps 737 mmHg 69%
    13:00 +13°C° 0 mm 6 mps 736 mmHg 64%
    14:00 +13°C° 0 mm 5 mps 736 mmHg 66%
    15:00 +12°C° 0 mm 5 mps 735 mmHg 67%
    16:00 +11°C° 0 mm 4 mps 735 mmHg 68%
    17:00 +11°C° 0 mm 4 mps 735 mmHg 70%
    18:00 +9°C° 0 mm 5 mps 735 mmHg 72%
    19:00 +8°C° 0 mm 5 mps 735 mmHg 74%
    20:00 +8°C° 0 mm 5 mps 735 mmHg 75%
    21:00 +8°C° 0 mm 5 mps 735 mmHg 75%
    22:00 +8°C° 0 mm 5 mps 735 mmHg 75%
    23:00 +7°C° 0 mm 5 mps 735 mmHg 74%

    27 October, Saturday

    Time Temperature Precipitation Wind Pressure Humidity
    00:00 +7°C° 0 mm 5 mps 736 mmHg 74%
    01:00 +7°C° 0 mm 5 mps 736 mmHg 73%
    02:00 +6°C° 0 mm 5 mps 736 mmHg 73%
    03:00 +5°C° 0 mm 5 mps 736 mmHg 73%
    04:00 +5°C° 0 mm 5 mps 737 mmHg 72%
    05:00 +5°C° 0 mm 4 mps 737 mmHg 72%
    06:00 +4°C° 0 mm 4 mps 737 mmHg 72%
    07:00 +4°C° 0 mm 4 mps 737 mmHg 71%
    08:00 +5°C° 0 mm 4 mps 737 mmHg 68%
    09:00 +6°C° 0 mm 5 mps 738 mmHg 64%
    10:00 +7°C° 0 mm 5 mps 738 mmHg 61%
    11:00 +7°C° 0 mm 4 mps 738 mmHg 58%
    12:00 +7°C° 0 mm 4 mps 738 mmHg 56%
    13:00 +9°C° 0 mm 3 mps 738 mmHg 54%
    14:00 +9°C° 0 mm 3 mps 738 mmHg 56%
    15:00 +8°C° 0 mm 2 mps 738 mmHg 58%
    16:00 +9°C° 0 mm 1 mps 738 mmHg 60%
    17:00 +9°C° 0 mm 1 mps 739 mmHg 62%
    18:00 +8°C° 0 mm 1 mps 739 mmHg 63%
    19:00 +8°C° 0 mm 1 mps 739 mmHg 65%
    20:00 +6°C° 0 mm 0 mps 739 mmHg 66%
    21:00 +6°C° 0 mm 0 mps 739 mmHg 67%
    22:00 +6°C° 0 mm 0 mps 739 mmHg 68%
    23:00 +7°C° 0 mm 1 mps 739 mmHg 69%

    28 October, Sunday

    Time Temperature Precipitation Wind Pressure Humidity
    00:00 +7°C° 0 mm 1 mps 739 mmHg 71%
    01:00 +7°C° 0 mm 1 mps 739 mmHg 72%
    02:00 +5°C° 0.1 mm 2 mps 739 mmHg 74%
    03:00 +5°C° 0.1 mm 2 mps 739 mmHg 76%
    04:00 +5°C° 0.1 mm 2 mps 739 mmHg 77%
    05:00 +4°C° 0.2 mm 3 mps 739 mmHg 79%
    06:00 +4°C° 0.2 mm 3 mps 739 mmHg 80%
    07:00 +4°C° 0.2 mm 3 mps 739 mmHg 82%
    08:00 +4°C° 0.8 mm 4 mps 739 mmHg 81%
    09:00 +3°C° 0.8 mm 5 mps 739 mmHg 81%
    10:00 +3°C° 0.8 mm 5 mps 739 mmHg 80%
    11:00 +3°C° 1.7 mm 6 mps 738 mmHg 81%
    12:00 +3°C° 1.7 mm 6 mps 738 mmHg 82%
    13:00 +3°C° 1.7 mm 7 mps 737 mmHg 83%
    14:00 +3°C° 1.8 mm 6 mps 737 mmHg 84%
    15:00 +2°C° 1.8 mm 6 mps 737 mmHg 85%
    16:00 +2°C° 1.8 mm 6 mps 737 mmHg 85%
    17:00 +2°C° 0.5 mm 6 mps 737 mmHg 86%
    18:00 +2°C° 0.5 mm 6 mps 737 mmHg 87%
    19:00 +2°C° 0.5 mm 6 mps 737 mmHg 87%
    20:00 +2°C° 1.6 mm 6 mps 737 mmHg 88%
    21:00 +2°C° 1.6 mm 6 mps 736 mmHg 89%
    22:00 +2°C° 1.6 mm 6 mps 736 mmHg 90%
    23:00 +2°C° 3 mm 6 mps 735 mmHg 91%

    29 October, Monday

    Time Temperature Precipitation Wind Pressure Humidity
    00:00 +2°C° 3 mm 6 mps 735 mmHg 91%
    01:00 +2°C° 3 mm 6 mps 735 mmHg 92%
    02:00 +2°C° 2 mm 6 mps 734 mmHg 92%
    03:00 +2°C° 2 mm 6 mps 734 mmHg 92%
    04:00 +2°C° 2 mm 6 mps 733 mmHg 92%
    05:00 +2°C° 1.4 mm 6 mps 733 mmHg 92%
    06:00 +2°C° 1.4 mm 5 mps 733 mmHg 92%
    07:00 +2°C° 1.4 mm 5 mps 732 mmHg 92%
    08:00 +2°C° 1.9 mm 5 mps 732 mmHg 93%
    09:00 +2°C° 1.9 mm 5 mps 732 mmHg 93%
    10:00 +2°C° 1.9 mm 5 mps 732 mmHg 93%
    11:00 +3°C° 1.6 mm 4 mps 732 mmHg 93%
    12:00 +3°C° 1.6 mm 4 mps 732 mmHg 93%
    13:00 +3°C° 1.6 mm 4 mps 732 mmHg 94%
    14:00 +3°C° 0.3 mm 3 mps 731 mmHg 94%
    15:00 +4°C° 0.3 mm 3 mps 731 mmHg 94%
    16:00 +4°C° 0.3 mm 3 mps 731 mmHg 94%
    17:00 +4°C° 0.2 mm 3 mps 731 mmHg 95%
    18:00 +5°C° 0.2 mm 2 mps 731 mmHg 95%
    19:00 +5°C° 0.2 mm 2 mps 731 mmHg 96%
    20:00 +5°C° 0 mm 2 mps 731 mmHg 96%
    21:00 +5°C° 0 mm 2 mps 731 mmHg 96%
    22:00 +6°C° 0 mm 2 mps 731 mmHg 97%
    23:00 +6°C° 0 mm 2 mps 730 mmHg 97%
    Show more